Andalusia, AL

3:44 AM CST on November 24, 2017 (GMT -0600)
Andalusia

Weather History for K79J - October, 2012

Change the Weather History Date:

Tuesday, October 23, 2012

  Actual Average (KCEW) Record (KCEW)
Temperature  
Mean Temperature 68 °F -  
Max Temperature 82 °F 76 °F 88 °F (1949)
Min Temperature 53 °F 52 °F 35 °F (1997)
Cooling Degree Days 2    
Growing Degree Days 18 (Base 50)    
Moisture  
Dew Point 53 °F    
Average Humidity 66    
Maximum Humidity 86    
Minimum Humidity 32    
Precipitation  
Precipitation 0.00 in - - ()
Sea Level Pressure  
Sea Level Pressure 30.09 in    
Wind  
Wind Speed 1 mph (ESE)    
Max Wind Speed 7 mph    
Max Gust Speed -    
Visibility 10 miles    
Events      
Averages and records for this station are not official NWS values.
T = Trace of Precipitation, MM = Missing Value Source: NWS Daily Summary

Daily Weather History Graph

Daily Weather History Graph

Search for Another Location

Airport or City:

Trip Planner

Search our weather history database for the weather conditions in past years. The results will help you decide how hot, cold, wet, or windy it might be!

Date:

Astronomy

Oct. 23, 2012 Rise Set
Actual Time 6:54 AM CDT 6:04 PM CDT
Civil Twilight 6:29 AM CDT 6:29 PM CDT
Nautical Twilight 6:01 AM CDT 6:57 PM CDT
Astronomical Twilight 5:33 AM CDT 7:25 PM CDT
Moon 2:28 PM CDT (10/23) 1:08 AM CDT (10/23)
Length of Visible Light 11h 59m
Length of Day
11h 09m
Waxing Gibbous, 67% of the Moon is Illuminated
Oct 23
Waxing Gibbous
Oct 29
Full
Nov 6
Last Quarter
Nov 13
New
Nov 20
First Quarter

Hourly Weather History & Observations

Time (CDT) Temp. Heat Index Dew Point Humidity Pressure Visibility Wind Dir Wind Speed Gust Speed Precip Events Conditions
12:56 AM 55.9 °F - 51.1 °F 84% 30.10 in 10.0 mi Calm Calm - N/A   Clear
1:56 AM 55.9 °F - 50.0 °F 80% 30.09 in 10.0 mi Calm Calm - N/A   Clear
2:56 AM 54.0 °F - 50.0 °F 86% 30.08 in 10.0 mi Calm Calm - N/A   Clear
3:56 AM 55.0 °F - 48.9 °F 80% 30.07 in 10.0 mi Calm Calm - N/A   Clear
4:56 AM 54.0 °F - 48.0 °F 80% 30.09 in 10.0 mi Calm Calm - N/A   Clear
5:56 AM 53.1 °F - 48.0 °F 83% 30.10 in 10.0 mi Calm Calm - N/A   Clear
6:56 AM 54.0 °F - 48.9 °F 83% 30.12 in 10.0 mi Calm Calm - N/A   Clear
7:56 AM 57.9 °F - 52.0 °F 81% 30.13 in 10.0 mi Calm Calm - N/A   Clear
8:56 AM 61.0 °F - 53.1 °F 75% 30.14 in 10.0 mi East 4.6 mph - N/A   Clear
9:56 AM 69.1 °F - 57.0 °F 65% 30.15 in 10.0 mi ESE 4.6 mph - N/A   Clear
10:56 AM 73.0 °F - 57.0 °F 57% 30.14 in 10.0 mi ESE 4.6 mph - N/A   Clear
11:56 AM 75.9 °F - 54.0 °F 46% 30.12 in 10.0 mi Variable 3.5 mph - N/A   Clear
12:56 PM 80.1 °F - 48.0 °F 32% 30.09 in 10.0 mi ESE 4.6 mph - N/A   Clear
1:56 PM 80.1 °F - 51.1 °F 36% 30.07 in 10.0 mi Variable 3.5 mph - N/A   Clear
2:56 PM 82.0 °F - 51.1 °F 34% 30.05 in 10.0 mi SSE 3.5 mph - N/A   Clear
3:56 PM 82.0 °F - 50.0 °F 33% 30.05 in 10.0 mi ESE 6.9 mph - N/A   Clear
4:56 PM 81.0 °F 80.4 °F 53.1 °F 38% 30.05 in 10.0 mi ESE 4.6 mph - N/A   Clear
5:56 PM 73.9 °F - 57.0 °F 55% 30.06 in 10.0 mi Calm Calm - N/A   Clear
6:56 PM 69.1 °F - 57.9 °F 68% 30.07 in 10.0 mi Calm Calm - N/A   Clear
7:56 PM 64.9 °F - 57.0 °F 75% 30.08 in 10.0 mi Calm Calm - N/A   Clear
8:56 PM 64.0 °F - 57.0 °F 78% 30.09 in 10.0 mi Calm Calm - N/A   Clear
9:56 PM 63.0 °F - 55.9 °F 78% 30.09 in 10.0 mi Calm Calm - N/A   Clear
10:56 PM 62.1 °F - 55.0 °F 78% 30.08 in 10.0 mi Calm Calm - N/A   Clear
11:56 PM 61.0 °F - 55.9 °F 83% 30.07 in 9.0 mi Calm Calm - N/A   Clear